Showing default

COSMOS 2488, 39483

Orbit data source: Space-Track

COSMOS 2488, 39483 is a payload satellite owned by VVKO (CIS) in LEO that was launched on Wed, 25 Dec 2013 UTC via an ROKOT launch vehicle from the Plesetsk Missile And Space Complex (PKMTR). Payload-class satellites include a variety of spacecraft equipped with specific instruments for various scientific and technological missions. These include communications satellites like Starlink; space stations such as the ISS; scientific satellites like the Hubble; Earth observation satellites from companies like Planet Labs, Umbra, and HawkEye 360; GPS; miniature CubeSats for education and research; and military/defense satellites.

Loading next visibility...
Identifier
39483, 2013-076A
Orbit
LEO
Last TLE update
12 hours ago
Origin
Manufacturer
Resehetnev ISS
Mission
Operational Civil Communications
Bus & Motor
STRELA-3M, Unknown motor
Mass
280 kg wet, 280 kg dry
Launch date (UTC)
2013-12-25 (12 years ago)
Launch vehicle
ROKOT
Launch site
Plesetsk Missile And Space Complex (PKMTR)
Object type
Payload
Rocket body
Debris
Shape & HBR
Cyl + 1 Ant, 7 m
Radar Cross Section
1.583 m², Large (>1 m²)

Expand to show TLE details & history

TLE from 12 hours ago
0 COSMOS 2488
1 39483U 13076A   25181.90834831  .00000015  00000-0  35430-4 0  9992
2 39483  82.4842  27.6056 0019624 139.0159 221.2400 12.42864027522256
Epoch: 2025-06-30T21:48Z
TLE epoch observation values (Epoch: 2025-06-30T21:48:01.293Z)
Latitude
-0°
Longitude
141.38881°
Altitude
1,508.817 km
Speed
7.105 km/s
True Right ascension
01h 50m 25s
True Declination
0° 00' 00"
Sunlit
Object was in daylight at epoch
Visualization orbit readout
Latitude
57.48262°
Longitude
152.96449°
Altitude
1,501.305 km
Speed
7.12 km/s
Apparent Right ascension
06h 18m 30s
Apparent Declination
23° 35' 26"
Sunlit
Object is in daylight
Visualization observer readout
Local Sidereal Time
21:20:34
Azimuth
42.284° NE
Elevation
-13.633°
Doppler factor
1
Orbital elements
Apogee altitude
1,507.281 km
Perigee altitude
1,476.393 km
Semi-major axis
7,869.974 km
Eccentricity
0.00196
Inclination
82.4842°
RAAN
27.6056°
Arg. of periapsis
139.0159°
True anomaly
Unknown
Mean anomaly
221.24°
Eccentric anomaly
Unknown
Mean motion
3.10873 °/min
Orbital period
115.8 mins
BSTAR
0.00003543
Loading maneuver chart data...
Loading SW <> Apogee altitude chart data...
Loading historical data...
Loading historical data...
Loading historical data...
Loading historical data...
Loading historical data...
Loading historical data...
Loading historical data...

COSMOS 2488 Visibility forecast

Observer location: undefined°, undefined°

Span
Click to sort rows by Start time (UTC) header in descending order
Start Az.
Max El. time (UTC)
Max El. Az.
Max El.
End time (UTC)
End Az.
14 mins2025-07-01 13:21:15.042Z145.623° SSE2025-07-01 13:28:15.042Z85.878° E30.889°2025-07-01 13:35:15.042Z25.851° NE
14 mins2025-07-01 15:18:15.042Z217.596° SW2025-07-01 15:25:15.042Z292.601° NW36.215°2025-07-01 15:32:15.042Z354.732° N
8 mins2025-07-01 23:34:15.042Z36.367° NE2025-07-01 23:37:15.042Z59.466° ENE16.04°2025-07-01 23:42:15.042Z96.465° ESE
16 mins2025-07-02 01:28:15.042Z353.882° N2025-07-02 01:35:15.042Z28.952° NE44.61°2025-07-02 01:44:15.042Z171.799° S
9 mins2025-07-02 03:27:15.042Z313.506° NW2025-07-02 03:31:15.042Z282.635° WNW17.619°2025-07-02 03:36:15.042Z245.139° WSW
|